Amateur Radio Satellites - All Passes

Search period start: 20 May 2013 11:58
Search period end: 21 May 2013 11:58
Location: Lake Sonoma, 38.7200°N, 123.0564°W

Satellite Date Start Highest point End Downlink Frequencies (MHz)
Time Altitude Azimuth
ISS 20 May 12:22:38 12:23:53 12° 232° (SW) 12:25:08 145.800 FM
UOSAT-12 20 May 12:35:40 12:40:10 81° 120° (ESE) 12:44:43 437.025 FM, 437.400 FM
Oscar 16 20 May 12:56:11 12:59:35 18° 63° (ENE) 13:02:59 437.025 USB, Beacon 2401.1428
AO-27 20 May 13:00:08 13:02:46 14° 61° (ENE) 13:05:24 436.795 MHz FM
ITAMSAT 1 20 May 13:06:55 13:09:59 16° 62° (ENE) 13:13:04 435.822 SSB
OPAL 20 May 13:09:33 13:12:36 17° 299° (WNW) 13:15:39 ?
MaSat-1 20 May 13:11:15 13:13:58 26° 254° (WSW) 13:16:18 437.345 MHz
Uribyol 2 20 May 13:46:31 13:51:17 39° 70° (ENE) 13:56:05 436.500 FM
Oscar 19 20 May 13:54:31 13:59:33 53° 72° (ENE) 14:04:37 437.125 CW, 437.150 USB
PANSAT 20 May 14:11:01 14:13:34 17° 174° (S) 14:16:08 not established
UOSAT-12 20 May 14:18:34 14:20:55 14° 318° (NW) 14:23:17 437.025 FM, 437.400 FM
AO-Echo 20 May 14:19:05 14:22:57 24° 68° (ENE) 14:26:45 ?
Oscar 16 20 May 14:33:24 14:38:28 56° 260° (W) 14:43:36 437.025 USB, Beacon 2401.1428
AO-27 20 May 14:36:31 14:41:39 71° 258° (WSW) 14:46:51 436.795 MHz FM
ITAMSAT 1 20 May 14:43:51 14:48:57 62° 259° (WSW) 14:54:06 435.822 SSB
Gurwin Techsat 1B 20 May 14:49:00 14:52:30 18° 63° (ENE) 14:56:02 435.225 FM
Saudisat 1A 20 May 15:12:47 15:17:03 37° 52° (NE) 15:21:12 436.775 MHz
Uribyol 2 20 May 15:26:48 15:30:53 23° 265° (W) 15:34:59 436.500 FM
Oscar 19 20 May 15:35:51 15:39:12 17° 268° (W) 15:42:35 437.125 CW, 437.150 USB
RS-15 20 May 15:39:56 15:49:03 26° 102° (ESE) 15:57:52 29.354 - 29.394 USB, Beacon 29.352 USB
Uosat F 20 May 15:46:57 15:51:56 80° 75° (ENE) 15:56:58 435.120 FM
PANSAT 20 May 15:50:48 15:53:19 17° 187° (S) 15:55:49 not established
AO-Echo 20 May 15:57:07 16:01:34 34° 262° (W) 16:05:57 ?
TMSAT-1 20 May 16:06:23 16:11:36 63° 73° (ENE) 16:16:50 436.925 FM
AO-7 20 May 16:11:01 16:18:22 37° 61° (ENE) 16:25:44 29.400 - 29.500 MHz
Gurwin Techsat 1B 20 May 16:26:49 16:32:01 56° 260° (W) 16:37:15 435.225 FM
PCSat 20 May 16:31:50 16:36:00 22° 49° (NE) 16:40:08 145.825 MHz
Saudisat 1A 20 May 16:53:01 16:56:30 22° 249° (WSW) 16:59:55 436.775 MHz
Sapphire 20 May 17:04:11 17:09:11 36° 54° (NE) 17:14:09 437.095 MHz 1200 baud AX-25 AFSK
Uosat F 20 May 17:30:48 17:31:18 10° 270° (W) 17:31:49 435.120 FM
RS-15 20 May 17:48:05 18:00:13 82° 301° (WNW) 18:11:52 29.354 - 29.394 USB, Beacon 29.352 USB
TMSAT-1 20 May 17:49:03 17:51:57 15° 269° (W) 17:54:51 436.925 FM
SO-50 20 May 17:52:21 17:56:13 26° 49° (NE) 18:00:00 436.795 FM
AO-7 20 May 18:02:58 18:10:53 49° 259° (W) 18:18:54 29.400 - 29.500 MHz
PCSat 20 May 18:14:29 18:19:47 56° 247° (WSW) 18:25:04 145.825 MHz
STRAND 1 20 May 18:39:10 18:42:57 20° 94° (E) 18:46:43 ?
JAS-1B 20 May 18:42:00 18:49:07 27° 63° (ENE) 18:55:29 435.800 - 435.900 CW/SSB
Sapphire 20 May 18:47:48 18:52:29 30° 251° (WSW) 18:57:09 437.095 MHz 1200 baud AX-25 AFSK
Hamsat 20 May 18:49:19 18:52:54 28° 70° (ENE) 18:56:30 145.90 MHz
SO-67 20 May 19:19:39 19:22:00 17° 69° (ENE) 19:24:21 435.3500 MHz FM
SO-50 20 May 19:32:48 19:36:50 33° 246° (WSW) 19:40:49 436.795 FM
RS-15 20 May 20:04:54 20:14:37 28° 327° (NNW) 20:24:03 29.354 - 29.394 USB, Beacon 29.352 USB
STRAND 1 20 May 20:17:28 20:22:20 44° 289° (WNW) 20:27:11 ?
JAS-2 20 May 20:23:41 20:28:10 17° 56° (NE) 20:32:40 435.800 - 435.900 CW/SSB, 435.910 FM
Hamsat 20 May 20:25:41 20:28:57 22° 266° (W) 20:32:15 145.90 MHz
JAS-1B 20 May 20:29:35 20:39:05 73° 257° (WSW) 20:47:18 435.800 - 435.900 CW/SSB
HO-68 20 May 20:34:35 20:40:19 27° 61° (ENE) 20:46:02 435.675 MHz FM
SO-67 20 May 20:52:14 20:55:15 26° 264° (W) 20:58:18 435.3500 MHz FM
UOSAT-12 20 May 21:06:42 21:11:09 47° 54° (NE) 21:15:35 437.025 FM, 437.400 FM
OPAL 20 May 21:08:07 21:09:50 12° 58° (ENE) 21:11:34 ?
JAS-2 20 May 22:04:18 22:11:55 79° 74° (ENE) 22:19:48 435.800 - 435.900 CW/SSB, 435.910 FM
Oscar 11 20 May 22:16:50 22:21:08 87° 77° (ENE) 22:25:29 145.825 FM, Beacon 2401.500 USB
HO-68 20 May 22:20:32 22:27:32 58° 258° (WSW) 22:34:34 435.675 MHz FM
KITSAT 1 20 May 22:20:36 22:25:58 20° 102° (ESE) 22:31:21 435.175 FM
RS-15 20 May 22:25:49 22:32:40 17° 3° (N) 22:39:21 29.354 - 29.394 USB, Beacon 29.352 USB
JAS-1B 20 May 22:26:18 22:30:22 14° 271° (W) 22:34:15 435.800 - 435.900 CW/SSB
OPAL 20 May 22:42:45 22:47:58 90° 259° (WSW) 22:53:11 ?
UOSAT-12 20 May 22:47:52 22:50:57 18° 250° (WSW) 22:54:03 437.025 FM, 437.400 FM
JAS-2 20 May 23:52:13 23:57:35 20° 271° (W) 00:03:06 435.800 - 435.900 CW/SSB, 435.910 FM
KITSAT 1 21 May 00:12:20 00:20:24 81° 300° (WNW) 00:28:33 435.175 FM
RS-15 21 May 00:40:20 00:50:09 33° 38° (NE) 00:59:39 29.354 - 29.394 USB, Beacon 29.352 USB
MaSat-1 21 May 01:57:30 02:04:12 41° 108° (ESE) 02:09:57 437.345 MHz
Uribyol 2 21 May 02:01:55 02:04:59 16° 92° (E) 02:08:02 436.500 FM
Oscar 19 21 May 02:08:28 02:12:19 21° 94° (E) 02:16:09 437.125 CW, 437.150 USB
KITSAT 1 21 May 02:11:17 02:17:07 21° 322° (NW) 02:22:59 435.175 FM
Oscar 16 21 May 02:46:31 02:51:39 59° 101° (E) 02:56:43 437.025 USB, Beacon 2401.1428
AO-27 21 May 02:51:04 02:56:06 47° 99° (E) 03:01:06 436.795 MHz FM
RS-15 21 May 02:52:39 03:03:43 79° 243° (WSW) 03:14:33 29.354 - 29.394 USB, Beacon 29.352 USB
ITAMSAT 1 21 May 02:58:09 03:03:16 53° 100° (E) 03:08:22 435.822 SSB
ISS 21 May 03:25:33 03:28:44 46° 136° (SE) 03:31:56 145.800 FM
Uribyol 2 21 May 03:39:41 03:44:50 59° 287° (WNW) 03:49:57 436.500 FM
MaSat-1 21 May 03:39:55 03:46:24 37° 300° (WNW) 03:51:53 437.345 MHz
Oscar 19 21 May 03:46:58 03:51:51 43° 289° (WNW) 03:56:41 437.125 CW, 437.150 USB
Uosat F 21 May 03:56:40 04:00:55 27° 96° (E) 04:05:10 435.120 FM
AO-Echo 21 May 04:04:59 04:09:45 83° 103° (ESE) 04:14:35 ?
TMSAT-1 21 May 04:24:10 04:28:42 28° 95° (E) 04:33:12 436.925 FM
Oscar 16 21 May 04:27:18 04:30:30 17° 297° (WNW) 04:33:41 437.025 USB, Beacon 2401.1428
AO-27 21 May 04:31:27 04:35:16 21° 295° (WNW) 04:39:06 436.795 MHz FM
ITAMSAT 1 21 May 04:38:48 04:42:20 19° 296° (WNW) 04:45:52 435.822 SSB
Gurwin Techsat 1B 21 May 04:44:20 04:49:38 67° 102° (ESE) 04:54:54 435.225 FM
ISS 21 May 05:02:52 05:05:35 23° 333° (NNW) 05:08:19 145.800 FM
RS-15 21 May 05:08:27 05:14:04 16° 262° (W) 05:19:41 29.354 - 29.394 USB, Beacon 29.352 USB
AO-40 21 May 05:20:52 05:59:25 12° 258° (WSW) 06:51:08 Beacon 2401.320
Saudisat 1A 21 May 05:21:02 05:23:16 14° 108° (ESE) 05:25:30 436.775 MHz
Uosat F 21 May 05:35:17 05:39:42 32° 291° (WNW) 05:44:08 435.120 FM
AO-Echo 21 May 05:47:13 05:47:53 10° 299° (WNW) 05:48:33 ?
STRAND 1 21 May 05:54:00 05:58:11 27° 67° (ENE) 06:02:24 ?
TMSAT-1 21 May 06:03:53 06:08:37 34° 291° (WNW) 06:13:21 436.925 FM
AO-7 21 May 06:05:28 06:13:47 64° 104° (ESE) 06:22:03 29.400 - 29.500 MHz
KITSAT 1 21 May 06:13:50 06:16:49 12° 25° (NNE) 06:19:48 435.175 FM
Gurwin Techsat 1B 21 May 06:26:00 06:29:01 16° 298° (WNW) 06:32:02 435.225 FM
Saudisat 1A 21 May 06:57:54 07:02:25 61° 304° (WNW) 07:07:00 436.775 MHz
PCSat 21 May 07:12:58 07:17:06 23° 106° (ESE) 07:21:14 145.825 MHz
STRAND 1 21 May 07:32:38 07:37:14 34° 263° (W) 07:41:51 ?
Sapphire 21 May 07:44:44 07:49:46 42° 111° (ESE) 07:54:51 437.095 MHz 1200 baud AX-25 AFSK
AO-7 21 May 07:59:09 08:05:58 29° 302° (WNW) 08:12:47 29.400 - 29.500 MHz
KITSAT 1 21 May 08:07:16 08:14:52 41° 50° (NE) 08:22:25 435.175 FM
SO-50 21 May 08:09:19 08:10:51 11° 107° (ESE) 08:12:23 436.795 FM
Hamsat 21 May 08:12:17 08:16:39 72° 101° (ESE) 08:21:01 145.90 MHz
JAS-1B 21 May 08:18:50 08:24:05 31° 95° (E) 08:29:01 435.800 - 435.900 CW/SSB
ISS 21 May 08:19:54 08:21:14 12° 14° (NNE) 08:22:34 145.800 FM
SO-67 21 May 08:20:11 08:23:12 25° 96° (E) 08:26:11 435.3500 MHz FM
PCSat 21 May 08:54:59 09:00:10 46° 303° (WNW) 09:05:24 145.825 MHz
JAS-2 21 May 09:21:47 09:22:28 10° 83° (E) 09:23:08 435.800 - 435.900 CW/SSB, 435.910 FM
Sapphire 21 May 09:28:46 09:33:20 27° 309° (NW) 09:37:56 437.095 MHz 1200 baud AX-25 AFSK
SO-50 21 May 09:46:03 09:50:52 76° 302° (WNW) 09:55:37 436.795 FM
HO-68 21 May 09:50:05 09:56:12 30° 96° (E) 10:02:16 435.675 MHz FM
Hamsat 21 May 09:51:33 09:52:07 10° 297° (WNW) 09:52:41 145.90 MHz
SO-67 21 May 09:54:02 09:56:28 18° 291° (WNW) 09:58:54 435.3500 MHz FM
ISS 21 May 09:55:29 09:58:41 39° 33° (NNE) 10:01:52 145.800 FM
KITSAT 1 21 May 10:02:41 10:10:20 47° 250° (WSW) 10:17:57 435.175 FM
Oscar 11 21 May 10:07:15 10:10:12 18° 93° (E) 10:13:09 145.825 FM, Beacon 2401.500 USB
JAS-1B 21 May 10:09:27 10:14:47 32° 295° (WNW) 10:19:45 435.800 - 435.900 CW/SSB
OPAL 21 May 10:54:54 10:59:02 26° 97° (E) 11:03:07 ?
JAS-2 21 May 11:01:49 11:08:50 79° 103° (ESE) 11:14:56 435.800 - 435.900 CW/SSB, 435.910 FM
UOSAT-12 21 May 11:18:20 11:21:27 19° 110° (ESE) 11:24:36 437.025 FM, 437.400 FM
SO-50 21 May 11:30:30 11:32:16 12° 321° (NW) 11:34:02 436.795 FM
ISS 21 May 11:32:36 11:35:12 21° 229° (SW) 11:37:48 145.800 FM
HO-68 21 May 11:37:14 11:44:04 50° 293° (WNW) 11:50:54 435.675 MHz FM
Oscar 11 21 May 11:42:31 11:46:33 37° 288° (WNW) 11:50:34 145.825 FM, Beacon 2401.500 USB

Developed and maintained by Chris Peat, Heavens-Above GmbH. Please read the updated FAQ before sending e-mail. Imprint. DLR
